Location: Unspecified
(0.0000°N, 0.0000°E)
Time: 13:29:39
(UTC+00:00)

Vanguard 3 - All Passes

Search period start: 21 February 2019 00:00
Search period end: 03 March 2019 00:00
Orbit: 509 x 3262 km, 33.4° (Epoch: 20 February)

Date Brightness Start Highest point End Pass type
(mag) Time Alt. Az. Time Alt. Az. Time Alt. Az.
21 Feb - 01:52:36 10° NW 02:03:11 16° NNW 02:12:30 10° NNE visible
21 Feb - 04:17:45 10° NNW 04:24:33 14° N 04:30:04 10° NE visible
21 Feb - 06:33:01 10° NNW 06:41:47 28° NNE 06:47:23 10° E daylight
21 Feb - 08:47:45 10° WNW 08:54:58 65° SW 08:59:23 10° SE daylight
21 Feb - 17:45:21 10° SSW 17:52:41 25° SE 18:03:32 10° E daylight
21 Feb - 19:54:56 10° SW 20:06:37 81° SE 20:25:37 10° ENE visible
21 Feb - 22:09:01 10° W 22:23:42 46° NNW 22:42:24 10° NE visible
22 Feb - 00:30:38 10° WNW 00:44:06 22° NNW 00:57:08 10° NNE visible
22 Feb - 02:58:19 10° NNW 03:06:31 14° N 03:13:27 10° NNE visible
22 Feb - 05:16:53 10° NNW 05:25:59 21° NNE 05:32:21 10° ENE visible
22 Feb - 07:31:43 10° NW 07:41:04 59° NNE 07:46:24 10° ESE daylight
22 Feb - 09:48:46 10° W 09:52:31 18° SW 09:55:30 10° S daylight
22 Feb - 16:36:54 10° SSE 16:37:56 10° SE 16:39:01 10° SE daylight
22 Feb - 18:41:42 10° SW 18:51:09 52° SE 19:07:05 10° ENE visible
22 Feb - 20:53:28 10° WSW 21:06:23 64° NNW 21:25:46 10° NE visible
22 Feb - 23:10:58 10° WNW 23:25:19 30° NNW 23:41:22 10° NNE visible
23 Feb - 01:36:52 10° NW 01:47:31 16° N 01:57:02 10° NNE visible
23 Feb - 03:59:47 10° NNW 04:09:06 17° N 04:16:14 10° NE visible
23 Feb - 06:15:34 10° NW 06:26:14 36° NNE 06:32:38 10° E daylight
23 Feb - 08:31:27 10° WNW 08:39:13 50° SW 08:43:54 10° SE daylight
23 Feb - 17:29:28 10° SSW 17:36:29 28° SE 17:47:16 10° E daylight
23 Feb - 19:39:13 10° SW 19:50:02 89° NW 20:08:23 10° NE visible
23 Feb - 21:53:34 10° W 22:07:11 40° NNW 22:25:08 10° NE visible
24 Feb - 00:15:26 10° NW 00:28:08 20° NNW 00:40:45 10° NNE visible
24 Feb - 02:41:11 10° NNW 02:51:00 16° N 02:59:10 10° NE visible
24 Feb - 04:59:05 10° NNW 05:10:25 27° NNE 05:17:54 10° ENE visible
24 Feb - 07:14:47 10° NW 07:25:23 77° NE 07:31:11 10° ESE daylight
24 Feb - 09:33:29 10° WSW 09:36:44 14° SW 09:39:24 10° S daylight
24 Feb - 16:19:50 10° SSE 16:22:06 11° SE 16:24:41 10° ESE daylight
24 Feb - 18:25:57 10° SW 18:34:44 59° SE 18:50:09 10° ENE visible
24 Feb - 20:37:56 10° WSW 20:49:54 55° NNW 21:08:22 10° NE visible
24 Feb - 22:55:49 10° WNW 23:09:07 26° NNW 23:24:22 10° NNE visible
25 Feb - 01:20:58 10° NW 01:31:52 17° N 01:41:45 10° NNE visible
25 Feb - 03:42:00 10° NNW 03:53:31 21° NNE 04:01:59 10° ENE visible
25 Feb - 05:58:09 10° NW 06:10:34 47° NNE 06:17:38 10° E daylight
25 Feb - 08:15:09 10° WNW 08:23:22 40° SW 08:28:21 10° SSE daylight
25 Feb - 17:13:39 10° SSW 17:20:19 31° SE 17:30:56 10° E daylight
25 Feb - 19:23:37 10° WSW 19:33:37 79° NW 19:51:03 10° NE visible
25 Feb - 21:38:18 10° W 21:50:52 35° NNW 22:07:46 10° NE visible
26 Feb - 00:00:19 10° NW 00:12:17 19° N 00:24:27 10° NNE visible
26 Feb - 02:23:59 10° NNW 02:35:24 18° N 02:44:47 10° NE visible
26 Feb - 04:41:23 10° NW 04:54:42 33° NNE 05:03:09 10° E visible
26 Feb - 06:57:51 10° NW 07:09:32 86° SW 07:15:50 10° SE daylight
26 Feb - 09:18:25 10° WSW 09:20:57 12° SW 09:23:07 10° SSW daylight
26 Feb - 16:03:23 10° SSE 16:06:15 12° SE 16:09:41 10° ESE daylight
26 Feb - 18:10:18 10° SW 18:18:25 67° SE 18:33:08 10° ENE visible
26 Feb - 20:22:35 10° W 20:33:35 47° NNW 20:50:52 10° NE visible
26 Feb - 22:40:51 10° WNW 22:53:04 23° NNW 23:07:20 10° NNE visible
27 Feb - 01:04:52 10° NW 01:16:13 17° N 01:26:38 10° NE visible
27 Feb - 03:24:18 10° NNW 03:37:47 26° NNE 03:47:27 10° ENE visible
27 Feb - 05:40:46 10° NW 05:54:44 59° NNE 06:02:29 10° ESE visible
27 Feb - 07:58:53 10° WNW 08:07:25 34° SW 08:12:43 10° SSE daylight
27 Feb - 16:57:55 10° SSW 17:04:11 35° SE 17:14:31 10° ENE daylight
27 Feb - 19:08:10 10° WSW 19:17:22 67° NNW 19:33:39 10° NE visible
27 Feb - 21:23:16 10° WNW 21:34:45 30° NNW 21:50:19 10° NNE visible
27 Feb - 23:45:10 10° NW 23:56:32 18° N 00:08:17 10° NNE visible
28 Feb - 02:06:45 10° NNW 02:19:41 21° NNE 02:30:16 10° NE visible
28 Feb - 04:23:44 10° NW 04:38:51 41° NNE 04:48:11 10° E visible
28 Feb - 06:40:54 10° WNW 06:53:33 71° SW 07:00:24 10° SE daylight
28 Feb - 09:03:54 10° SW 09:05:08 10° SW 09:06:18 10° SSW daylight
28 Feb - 15:47:09 10° SSE 15:50:23 14° SE 15:54:26 10° ESE daylight
28 Feb - 17:54:45 10° SW 18:02:14 79° SE 18:16:05 10° ENE daylight
28 Feb - 20:07:24 10° W 20:17:29 40° NNW 20:33:17 10° NE visible
28 Feb - 22:26:04 10° NW 22:37:11 21° NNW 22:50:18 10° NNE visible
01 Mar - 00:48:37 10° NNW 01:00:32 18° N 01:11:37 10° NE visible
01 Mar - 03:06:41 10° NNW 03:21:53 30° NNE 03:32:39 10° ENE visible
01 Mar - 05:23:23 10° NW 05:38:44 71° NNE 05:47:11 10° ESE visible
01 Mar - 07:42:37 10° W 07:51:25 29° SW 07:56:59 10° SSE daylight
01 Mar - 16:42:13 10° SSW 16:48:06 40° SE 16:58:04 10° ENE daylight
01 Mar - 18:52:51 10° WSW 19:01:18 56° NNW 19:16:13 10° NE visible
01 Mar - 21:08:26 10° WNW 21:18:48 25° NNW 21:32:47 10° NNE visible
01 Mar - 23:29:57 10° NW 23:40:50 17° N 23:52:16 10° NE visible
02 Mar - 01:49:32 10° NNW 02:03:50 24° NNE 02:15:33 10° ENE visible
02 Mar - 04:06:08 10° NW 04:22:48 49° NNE 04:33:02 10° E visible
02 Mar - 06:23:59 10° WNW 06:37:25 61° SW 06:44:51 10° SE daylight
02 Mar - 15:31:04 10° S 15:34:31 16° SE 15:39:00 10° E daylight
02 Mar - 17:39:18 10° SW 17:46:11 88° NW 17:59:01 10° NE daylight
02 Mar - 19:52:25 10° W 20:01:32 33° NNW 20:15:38 10° NE visible
02 Mar - 22:11:25 10° NW 22:21:26 19° N 22:33:16 10° NNE visible
